COSMOS 2459 [GLONASS-M] 1 36400U 10007A 10076.90581459 .00000045 00000-0 00000+0 0 322 2 36400 64.7745 153.9442 0033407 350.5397 4.3634 2.13112360 330 COSMOS 2461 [GLONASS-M] 1 36401U 10007B 10076.57475825 .00000045 00000-0 00000+0 0 291 2 36401 64.7748 153.9623 0004782 86.3362 284.7173 2.13047257 339 COSMOS 2460 [GLONASS-M] 1 36402U 10007C 10076.68744400 .00000045 00000-0 00000+0 0 382 2 36402 64.7559 153.9635 0001906 227.0029 275.5373 2.13106176 338 SL-12 R/B(2) 1 36403U 10007D 10076.48689920 .00000045 00000-0 00000+0 0 117 2 36403 64.7635 153.9662 0009102 188.5327 171.5211 2.13312468 331 SL-12 R/B (AUX MOTOR) 1 36406U 10007G 10076.36966421 .00000129 00000-0 10000-3 0 119 2 36406 64.6907 148.7339 5801290 192.7968 141.7940 4.23141505 657 SL-12 R/B (AUX MOTOR) 1 36407U 10007H 10070.46125647 -.00000044 00000-0 00000+0 0 24 2 36407 64.8423 150.9181 5801781 193.0073 141.2152 4.23129829 395 GOES 15 1 36411U 10008A 10077.09183294 -.00000181 00000-0 00000+0 0 200 2 36411 0.4598 266.4448 0001251 267.0693 305.6154 1.00280121 176 DELTA 4 R/B 1 36412U 10008B 10076.16159740 -.00000194 00000-0 00000+0 0 87 2 36412 13.1426 352.8754 5240136 182.6400 172.8007 1.92901945 231 YAOGAN 9A 1 36413U 10009A 10077.04409277 -.00000031 00000-0 10000-3 0 467 2 36413 63.4084 151.2589 0011256 323.6803 36.3462 13.45009874 1720 YAOGAN 9B 1 36414U 10009B 10077.05793063 -.00000025 00000-0 10000-3 0 472 2 36414 63.4086 150.8606 0010989 324.4537 35.5761 13.53161207 1735 YAOGAN 9C 1 36415U 10009C 10077.04428667 -.00000031 00000-0 10000-3 0 441 2 36415 63.4093 151.2598 0011862 327.4997 32.5302 13.45008999 1718 CZ-4C R/B 1 36416U 10009D 10076.88971695 -.00000022 00000-0 80564-4 0 271 2 36416 63.4595 150.3537 0128825 17.4380 343.1021 13.69307553 1734 CZ-4C DEB 1 36417U 10009E 10076.22878944 -.00000031 00000-0 10000-3 0 359 2 36417 63.4097 153.3685 0010082 317.7009 42.3238 13.44724516 1607 CZ-4C DEB 1 36418U 10009F 10076.23104916 -.00000031 00000-0 10000-3 0 273 2 36418 63.4100 153.3771 0009944 309.9683 50.0464 13.44471057 1599